Temp
15 15 15 15 16 16 16 17 17 17 17 17 17 18 18 19 19 20 21 22 21 21 21 21 21 21 21 20 20 19 19 20 21 21 21 22 21 21 21 20 21 20 19 19 18
15 15 15 15 15 15 16 16 16 17 17 17 17 18 18 19 20 21 21 22 22 21 21 21 21 20 20 20 20 19 19 20 19 19 20 22 22 21 20 20 18 18 19 18 18
15 15 15 15 15 15 16 16 16 16 17 17 17 17 18 19 20 21 21 22 22 21 21 20 21 20 20 20 20 19 19 19 18 19 19 20 22 22 21 20 19 18 19 18 18
15 15 15 15 15 16 16 16 16 16 16 17 17 18 18 19 20 21 21 21 21 21 21 20 20 21 19 19 20 19 19 19 18 18 19 20 21 22 21 21 21 21 20 19 18
15 15 15 15 15 16 16 16 16 17 17 17 17 18 18 19 21 21 21 22 21 21 21 21 20 21 20 20 20 20 18 18 17 18 19 19 20 22 22 22 21 20 19 19 19
15 15 15 15 16 16 16 17 17 17 17 17 17 17 18 18 20 21 21 21 21 21 21 21 21 21 21 20 19 19 18 17 17 17 18 18 21 22 21 21 21 21 19 19 20
15 15 16 16 16 16 17 17 17 17 17 17 17 17 18 20 21 21 20 20 20 21 21 21 21 21 21 19 19 18 18 17 17 17 18 18 21 21 20 21 20 20 20 19 19
15 15 16 16 17 17 18 18 18 18 18 18 18 18 20 21 21 21 21 20 20 20 20 22 21 21 21 20 19 19 18 18 16 17 18 19 18 18 20 20 19 18 19 19 19
15 16 16 17 17 18 19 19 19 19 18 18 18 18 20 21 21 22 21 21 21 20 21 21 22 21 20 18 17 18 17 17 17 16 16 18 18 20 20 20 19 19 18 18 18
15 16 16 17 18 19 19 19 19 19 18 18 18 19 22 21 21 21 22 21 21 21 21 21 21 17 16 16 18 19 17 17 17 16 17 18 18 20 21 20 20 19 19 18 18
16 16 17 18 19 20 19 19 19 19 19 20 19 19 21 22 22 21 22 21 21 21 19 20 17 18 19 19 20 18 19 18 17 16 17 17 17 19 20 21 20 20 19 19 19
16 17 18 19 20 19 19 18 18 18 17 20 21 21 22 22 22 22 22 21 21 19 20 17 18 19 21 19 20 18 19 18 17 17 16 17 17 18 17 18 20 20 20 20 20
17 18 18 19 20 20 19 18 19 19 16 20 21 22 22 22 22 22 22 22 20 20 19 18 21 20 21 20 19 19 20 17 18 17 17 17 17 17 18 17 18 19 21 20 20
17 19 19 20 20 20 19 19 20 20 14 20 22 23 23 23 22 23 23 23 21 20 19 20 20 21 19 19 20 20 19 19 17 18 18 17 18 17 17 17 17 19 19 20 20
18 19 20 19 19 19 19 20 20 20 16 21 22 23 23 23 23 23 23 23 21 21 19 20 21 20 19 20 18 19 18 18 18 17 17 16 17 18 18 17 18 18 19 20 21
19 19 19 19 20 20 20 20 20 16 19 20 22 22 22 22 22 22 23 23 22 21 20 19 21 20 20 20 20 19 18 18 17 16 18 18 18 18 17 18 19 19 20 20 21
19 19 19 20 20 20 20 20 16 16 19 20 21 21 20 20 22 22 21 21 19 20 19 19 20 19 19 17 18 18 16 16 17 17 19 18 17 18 19 19 20 20 20 21 21
20 20 20 20 20 20 20 16 17 20 19 20 19 20 20 19 21 21 20 19 20 20 17 18 19 18 19 18 17 17 16 16 18 18 19 18 17 19 20 20 21 22 22 22 21
20 21 21 21 20 20 20 15 17 19 20 20 20 18 18 19 20 19 20 19 19 18 19 17 20 21 20 19 19 17 17 18 17 18 18 18 19 20 20 20 20 22 21 20 22
21 22 21 21 21 20 15 15 17 17 21 20 20 19 19 18 19 19 19 21 21 21 19 19 20 20 20 21 20 18 17 18 16 18 18 19 20 19 18 19 18 19 21 20 20
21 21 20 21 20 20 15 15 17 21 21 21 20 19 19 18 19 18 20 21 21 21 19 18 17 20 20 19 18 18 19 17 17 18 19 18 19 17 15 16 18 18 20 21 19
20 17 20 20 18 11 14 16 21 21 22 20 20 19 19 17 17 19 19 20 21 20 21 18 14 17 20 19 18 17 20 17 18 20 16 17 18 16 16 15 18 18 20 20 20
18 19 19 20 15 14 15 17 20 21 20 20 19 19 17 17 19 18 18 21 20 20 20 19 16 15 17 17 18 19 20 17 13 14 16 19 17 17 16 15 15 17 20 20 19
18 15 19 19 18 16 17 18 20 21 20 19 19 18 18 16 15 18 17 19 20 20 20 18 15 16 15 17 17 19 19 18 16 16 17 17 17 17 15 15 14 15 17 21 21
16 14 15 14 15 15 14 17 20 20 20 19 19 19 18 18 17 18 18 17 19 18 18 16 17 18 18 17 18 19 18 17 16 16 18 15 17 15 15 15 14 15 16 17 18
14 13 15 15 15 15 14 19 19 20 19 19 18 18 17 17 16 17 18 17 18 16 16 13 17 16 19 19 19 18 17 17 16 16 16 16 15 15 14 14 13 14 14 14 16
13 13 13 14 13 15 15 16 19 19 20 20 18 17 18 18 19 18 17 14 14 15 14 13 14 15 17 15 19 18 17 16 15 14 15 14 15 15 13 13 12 12 12 13 13
Height
1512 1510 1509 1507 1505 1503 1502 1500 1499 1498 1497 1496 1496 1495 1495 1495 1495 1495 1495 1497 1498 1499 1501 1503 1505 1507 1509 1509 1510 1511 1516 1522 1520 1521 1522 1522 1524 1528 1528 1530 1534 1535 1536 1542 1546
1513 1511 1509 1508 1506 1504 1502 1501 1499 1498 1496 1495 1495 1494 1494 1494 1494 1494 1496 1496 1498 1499 1501 1503 1505 1508 1510 1510 1511 1510 1517 1518 1518 1520 1522 1523 1526 1527 1528 1532 1537 1536 1541 1545 1548
1514 1512 1510 1508 1507 1505 1503 1501 1500 1498 1496 1495 1494 1493 1493 1493 1494 1494 1494 1495 1497 1500 1501 1504 1506 1509 1510 1511 1512 1513 1518 1517 1522 1523 1523 1524 1525 1527 1530 1534 1535 1534 1540 1545 1549
1515 1513 1511 1509 1507 1506 1504 1502 1500 1498 1496 1495 1494 1493 1493 1493 1498 1494 1494 1495 1497 1499 1502 1505 1508 1510 1511 1513 1512 1517 1516 1517 1523 1524 1524 1525 1526 1528 1531 1531 1534 1537 1541 1545 1549
1515 1514 1512 1510 1508 1506 1504 1502 1501 1499 1497 1496 1495 1493 1493 1493 1493 1494 1493 1494 1497 1500 1503 1505 1508 1511 1512 1511 1511 1513 1518 1518 1522 1523 1526 1527 1527 1528 1532 1533 1536 1541 1544 1547 1551
1515 1513 1512 1510 1508 1506 1504 1502 1500 1499 1498 1496 1495 1494 1494 1494 1493 1494 1495 1496 1498 1501 1503 1507 1510 1511 1512 1512 1513 1515 1518 1523 1525 1526 1528 1530 1527 1528 1532 1534 1538 1541 1545 1548 1551
1515 1513 1512 1510 1508 1506 1504 1503 1500 1499 1498 1496 1495 1494 1494 1495 1494 1495 1497 1498 1500 1502 1505 1508 1511 1513 1513 1513 1515 1517 1521 1523 1524 1529 1530 1531 1528 1526 1529 1533 1538 1541 1545 1550 1552
1514 1512 1510 1509 1507 1505 1503 1502 1500 1498 1497 1496 1495 1494 1494 1495 1495 1496 1497 1499 1499 1501 1505 1508 1511 1513 1513 1515 1518 1520 1523 1529 1528 1527 1530 1531 1535 1525 1527 1531 1538 1541 1546 1550 1552
1513 1512 1510 1508 1506 1504 1502 1501 1499 1498 1497 1496 1495 1495 1495 1496 1496 1497 1498 1500 1500 1502 1506 1508 1511 1513 1515 1518 1526 1524 1534 1531 1532 1530 1532 1532 1532 1524 1527 1529 1537 1541 1544 1549 1553
1512 1511 1509 1506 1505 1504 1502 1500 1499 1498 1496 1496 1496 1498 1496 1496 1495 1496 1498 1501 1501 1504 1507 1509 1510 1515 1519 1524 1541 1530 1534 1531 1529 1533 1532 1532 1530 1527 1529 1532 1534 1541 1544 1549 1552
1512 1509 1507 1505 1504 1504 1504 1500 1502 1500 1497 1497 1497 1497 1495 1496 1496 1496 1499 1501 1502 1504 1508 1509 1517 1523 1517 1516 1514 1520 1522 1529 1527 1528 1528 1533 1534 1529 1530 1534 1538 1541 1543 1547 1550
1511 1508 1505 1504 1505 1506 1505 1504 1505 1507 1501 1495 1495 1495 1495 1496 1496 1497 1500 1502 1502 1508 1506 1514 1522 1512 1510 1513 1513 1519 1523 1528 1527 1527 1533 1535 1536 1531 1532 1533 1535 1537 1542 1545 1549
1510 1507 1505 1505 1506 1507 1507 1506 1505 1503 1503 1496 1495 1495 1495 1496 1496 1497 1500 1501 1502 1507 1509 1516 1512 1509 1509 1514 1517 1520 1522 1528 1530 1530 1534 1535 1537 1534 1531 1534 1535 1537 1539 1542 1544
1510 1508 1507 1507 1510 1508 1508 1506 1505 1503 1513 1502 1496 1495 1495 1495 1496 1497 1499 1502 1502 1507 1510 1511 1508 1509 1513 1515 1514 1521 1518 1520 1529 1532 1541 1534 1545 1534 1532 1532 1532 1535 1535 1538 1541
1510 1508 1508 1508 1509 1509 1510 1507 1505 1505 1539 1499 1496 1495 1495 1497 1496 1497 1499 1501 1504 1506 1510 1515 1508 1511 1515 1512 1515 1523 1519 1524 1528 1534 1538 1542 1546 1527 1525 1529 1526 1530 1531 1533 1537
1510 1509 1509 1510 1509 1509 1508 1506 1506 1520 1528 1505 1496 1496 1496 1495 1496 1497 1499 1501 1502 1504 1507 1507 1503 1504 1505 1506 1509 1516 1524 1527 1531 1537 1545 1534 1536 1525 1524 1515 1517 1523 1526 1528 1532
1511 1510 1509 1509 1510 1508 1506 1505 1520 1533 1508 1507 1502 1498 1499 1499 1496 1497 1501 1504 1512 1518 1517 1508 1504 1503 1502 1513 1515 1516 1531 1552 1552 1549 1543 1529 1539 1517 1501 1496 1497 1511 1518 1523 1527
1510 1509 1508 1508 1508 1507 1506 1507 1528 1511 1511 1502 1503 1500 1505 1501 1500 1499 1504 1511 1505 1508 1520 1522 1520 1505 1502 1508 1514 1521 1526 1543 1554 1550 1543 1530 1535 1509 1488 1490 1495 1504 1510 1517 1521
1509 1507 1507 1508 1508 1507 1507 1524 1521 1512 1505 1505 1503 1511 1511 1505 1503 1504 1507 1511 1506 1505 1519 1522 1512 1496 1499 1502 1507 1520 1527 1517 1534 1531 1544 1528 1511 1496 1491 1495 1499 1503 1507 1506 1511
1509 1508 1508 1508 1508 1507 1508 1521 1514 1506 1503 1503 1512 1510 1515 1512 1509 1508 1510 1503 1504 1501 1502 1507 1515 1500 1499 1500 1506 1509 1511 1529 1531 1544 1551 1525 1517 1517 1505 1502 1497 1498 1499 1504 1509
1508 1508 1509 1508 1509 1508 1518 1517 1509 1503 1502 1504 1509 1512 1511 1514 1511 1514 1511 1503 1502 1501 1501 1505 1512 1509 1503 1507 1511 1515 1515 1519 1521 1525 1531 1539 1527 1514 1509 1499 1498 1498 1500 1502 1505
1508 1510 1510 1510 1511 1514 1517 1511 1506 1503 1502 1503 1506 1509 1511 1514 1516 1513 1513 1506 1501 1500 1505 1505 1518 1521 1509 1503 1503 1505 1508 1515 1527 1525 1530 1532 1527 1512 1507 1501 1499 1497 1494 1498 1502
1509 1509 1509 1509 1517 1516 1511 1509 1506 1504 1504 1505 1508 1508 1511 1515 1518 1514 1512 1504 1501 1500 1504 1505 1520 1533 1526 1515 1507 1509 1506 1512 1521 1525 1529 1530 1528 1512 1509 1504 1501 1499 1496 1498 1502
1511 1511 1509 1509 1509 1511 1511 1507 1505 1504 1504 1505 1508 1508 1512 1518 1515 1516 1513 1506 1504 1502 1502 1503 1519 1524 1537 1524 1516 1516 1510 1509 1517 1526 1523 1526 1521 1515 1513 1510 1506 1502 1499 1500 1503
1512 1512 1512 1513 1511 1511 1511 1507 1505 1506 1505 1505 1509 1509 1511 1517 1517 1516 1512 1510 1505 1503 1502 1506 1519 1514 1512 1513 1508 1511 1516 1513 1514 1515 1517 1520 1516 1518 1517 1515 1511 1505 1503 1504 1505
1513 1513 1512 1510 1509 1510 1509 1504 1504 1503 1504 1507 1510 1510 1511 1515 1514 1517 1512 1513 1512 1507 1508 1510 1518 1516 1513 1509 1504 1515 1517 1514 1511 1515 1516 1515 1521 1518 1517 1515 1513 1511 1509 1506 1505
1514 1513 1513 1510 1509 1510 1509 1505 1502 1503 1503 1503 1505 1509 1511 1509 1509 1509 1510 1511 1511 1513 1514 1515 1519 1522 1525 1519 1508 1519 1517 1515 1516 1517 1516 1522 1518 1517 1518 1519 1517 1517 1517 1515 1514
Wind_Speed
14 14 14 14 13 12 10 9 8 6 6 6 6 5 5 6 7 9 8 5 8 11 13 14 15 11 6 1 3 1 2 3 3 5 3 14 6 15 7 18 9 2 24 26 25
14 15 15 14 13 13 13 11 10 8 6 5 6 6 5 5 7 7 3 9 10 12 13 15 16 11 3 1 1 4 3 1 3 3 2 6 11 6 9 12 10 22 25 26 27
12 14 16 15 14 12 12 12 12 10 9 7 5 5 5 4 1 2 1 10 15 12 12 12 13 7 2 0 2 2 3 4 10 8 7 3 10 4 20 4 14 31 32 30 26
11 13 14 15 15 13 12 12 12 11 10 8 6 5 4 1 5 3 2 12 15 13 13 14 11 5 2 1 4 2 4 7 4 7 5 4 1 7 14 5 28 32 32 31 27
10 11 13 14 15 13 13 12 12 11 10 9 7 5 3 1 2 3 2 11 16 15 13 14 12 4 1 2 5 2 2 8 5 4 6 8 5 4 13 15 29 29 31 30 27
11 12 12 13 14 13 12 12 12 10 9 10 7 6 3 1 1 5 7 8 12 13 13 12 6 4 2 2 0 5 9 8 6 2 6 6 3 10 14 24 29 30 31 28 27
11 12 13 13 13 13 11 10 11 10 9 9 8 7 2 3 6 4 4 2 6 8 9 13 8 5 4 1 6 12 5 5 2 2 2 10 6 7 26 31 33 32 31 29 29
12 13 13 13 12 11 10 10 11 9 8 9 9 7 2 5 5 3 2 2 3 7 7 10 8 4 2 11 4 3 3 1 6 3 4 5 5 5 34 34 29 29 30 30 32
13 13 14 13 11 8 9 11 9 7 7 8 7 5 3 3 6 4 4 3 5 7 12 11 6 0 5 3 3 5 2 4 3 6 4 2 3 9 31 32 27 27 29 29 29
14 14 14 12 8 5 9 10 6 5 9 5 7 3 5 5 2 5 5 5 5 9 8 6 4 3 3 4 2 3 3 3 3 4 1 5 5 9 21 25 28 25 27 26 30
15 15 14 9 2 3 10 7 7 3 9 5 8 5 4 8 3 3 7 7 3 3 3 3 4 4 7 6 3 6 6 4 3 2 5 3 4 8 8 13 17 21 25 29 33
16 15 10 3 5 6 10 9 11 9 9 4 4 6 5 2 2 6 8 4 3 2 2 5 1 7 4 6 8 4 7 4 2 11 5 3 6 3 3 2 12 23 25 31 32
17 13 7 5 5 6 8 12 15 13 1 5 3 3 1 2 2 6 9 4 3 2 3 4 1 5 4 4 7 4 2 3 1 6 2 5 4 5 4 5 5 13 27 31 35
16 10 5 6 4 2 5 16 15 8 5 6 3 0 3 2 0 6 8 2 3 4 5 2 1 5 5 4 2 6 3 7 8 3 2 2 2 8 10 7 6 14 17 32 36
14 8 5 5 1 3 9 15 11 3 5 6 3 1 2 2 1 5 8 2 4 3 5 6 3 4 4 6 4 2 8 7 3 3 3 4 2 3 12 14 13 15 19 25 36
12 7 3 3 3 3 8 13 3 5 2 6 2 2 2 2 2 4 4 3 0 3 1 7 2 6 9 3 7 11 6 4 3 2 1 4 4 4 7 21 18 16 22 26 34
8 7 2 4 3 5 11 4 5 5 4 7 3 4 3 3 2 2 4 2 2 2 2 4 2 2 8 9 3 3 6 2 3 3 3 5 3 9 7 14 25 24 25 27 34
7 7 6 7 5 8 12 5 6 3 4 4 3 3 4 5 5 2 3 1 2 2 1 2 3 7 4 5 7 5 6 5 4 2 4 4 6 5 7 14 32 33 33 31 34
9 8 2 2 4 7 6 5 5 3 4 4 3 6 6 5 1 4 3 1 4 6 5 2 4 1 6 4 6 5 3 3 5 3 2 4 6 5 3 6 13 24 25 35 39
8 1 0 3 5 8 4 3 3 5 3 2 3 1 3 5 3 4 2 2 3 2 6 2 2 3 3 6 1 5 5 2 2 5 4 5 2 4 10 8 7 12 23 29 33
5 2 4 1 2 3 3 4 5 4 2 3 2 3 1 2 3 2 2 2 2 2 3 1 2 4 3 3 6 2 1 2 2 3 4 2 2 6 12 8 6 5 13 21 31
3 2 4 1 2 2 1 4 4 3 3 5 4 2 3 4 5 4 3 3 13 1 1 1 3 1 3 4 2 5 4 5 4 3 1 2 3 8 10 10 4 5 7 17 31
7 1 2 1 1 2 5 4 4 1 3 3 3 3 4 3 3 3 4 8 11 4 3 2 2 2 7 6 4 4 2 3 3 3 4 4 4 8 12 13 15 7 9 14 21
3 2 2 3 2 3 3 4 2 4 3 6 3 4 4 5 4 2 5 3 9 7 7 4 3 3 6 6 3 4 5 1 3 3 4 4 3 8 10 12 16 14 4 13 17
3 1 0 1 2 2 1 2 2 3 3 3 3 2 4 2 2 3 2 6 4 14 4 4 2 0 3 3 3 1 5 4 3 2 2 7 7 0 4 6 12 14 11 6 7
4 3 3 2 4 2 1 1 5 2 5 1 6 2 2 4 7 6 2 1 2 6 4 4 1 2 2 5 6 3 6 4 4 5 7 10 5 4 7 6 10 12 14 14 8
4 3 3 3 2 2 2 3 3 1 3 7 11 5 3 4 5 1 4 8 3 1 2 3 2 2 3 4 5 3 2 4 3 3 2 5 3 6 4 7 8 8 10 12 10
Wind_Direction
30 29 27 23 22 19 14 8 1 352 337 323 313 306 286 275 271 270 267 216 180 181 174 170 161 159 145 54 31 81 71 127 100 132 126 136 132 157 136 128 131 123 149 153 155
27 27 26 24 25 26 23 20 13 6 353 337 326 320 315 301 282 285 239 176 163 163 172 167 161 151 103 28 29 59 61 96 44 45 34 129 152 133 127 125 92 122 147 155 159
26 26 23 20 20 21 18 15 12 8 1 353 341 334 337 331 18 73 126 184 181 173 170 157 162 143 98 169 167 136 165 150 48 61 40 47 130 104 143 122 169 147 154 161 162
17 19 20 18 14 12 9 5 2 360 0 356 353 346 349 66 132 85 62 185 179 176 165 158 154 121 108 231 194 85 46 122 87 41 38 31 249 148 212 184 163 155 157 162 167
4 6 9 10 9 6 3 2 359 360 3 359 352 350 349 232 103 96 95 177 185 178 171 171 158 135 100 243 142 108 124 90 119 27 354 330 268 211 197 158 160 160 168 169 170
351 351 357 358 360 2 359 359 359 358 358 2 359 348 347 55 40 87 90 167 188 189 176 174 172 196 329 277 62 96 110 95 54 56 305 332 222 164 162 163 162 167 176 178 177
341 342 344 349 350 354 356 356 357 356 359 1 5 357 321 108 115 105 92 105 209 203 192 177 166 51 342 63 91 138 94 92 168 171 298 328 236 218 165 167 169 175 183 187 187
341 338 338 341 344 350 349 347 342 342 352 353 354 7 34 146 167 173 113 357 256 186 162 187 194 313 48 123 68 86 71 132 33 71 352 24 273 227 166 164 170 176 185 190 193
346 340 336 336 340 351 344 346 343 341 347 351 8 9 92 263 246 239 221 29 90 145 144 132 150 75 122 90 35 18 101 102 115 63 290 203 290 172 169 168 173 179 180 191 197
348 342 335 330 339 4 344 351 355 353 356 359 15 18 31 7 0 211 209 135 89 128 142 140 138 80 48 82 206 143 140 92 69 48 320 314 264 175 176 178 176 183 183 185 200
353 345 336 329 22 37 18 14 1 3 342 311 311 289 331 15 61 168 156 168 115 122 117 98 88 168 204 185 170 140 142 127 150 172 11 343 320 162 151 159 182 187 187 189 205
357 353 347 5 126 65 42 57 27 340 308 1 328 284 287 331 48 144 170 144 136 125 97 33 144 226 167 173 147 119 128 163 143 149 186 198 258 239 28 107 178 191 193 202 204
0 0 19 121 122 71 64 25 360 340 271 307 320 296 302 150 177 168 172 169 118 93 95 133 257 174 158 138 151 149 162 166 171 126 139 145 290 255 231 256 194 185 206 206 205
1 5 75 119 118 62 24 1 356 352 56 303 344 109 200 224 45 153 176 152 46 156 159 239 275 139 137 194 169 147 155 123 131 102 148 71 261 213 218 236 216 216 187 200 204
4 6 150 165 131 25 356 349 347 343 57 304 295 315 185 186 272 170 179 136 129 127 85 258 215 148 172 203 141 115 125 124 140 102 145 185 238 236 179 223 227 219 197 197 207
11 14 175 195 256 318 339 334 345 43 32 331 305 345 24 11 319 106 142 120 148 131 313 242 251 163 198 148 142 135 88 61 33 128 22 175 174 242 190 208 220 213 201 200 206
14 13 358 240 240 289 328 330 40 91 327 320 331 9 60 321 32 84 120 144 149 68 322 325 296 6 113 75 52 99 91 39 22 9 256 138 176 256 231 218 190 199 202 200 209
347 334 291 260 257 303 330 59 74 258 243 305 5 37 68 1 13 58 75 350 197 131 162 221 315 165 164 157 173 161 148 162 154 172 282 127 228 252 248 198 183 196 205 201 205
344 353 163 231 290 325 325 57 194 220 291 344 28 55 342 354 34 64 29 170 239 171 180 169 286 124 152 126 135 211 190 200 105 102 324 234 275 348 310 156 194 206 198 198 201
346 35 254 271 300 330 65 220 236 218 312 70 86 38 3 321 55 55 6 252 294 185 168 219 333 40 103 118 229 161 157 95 349 126 236 280 299 289 338 284 200 193 208 202 201
355 130 334 275 306 358 116 237 266 288 200 76 111 51 337 341 37 43 331 314 337 52 107 95 92 297 119 161 195 64 163 63 135 150 175 290 279 337 310 296 192 205 217 210 196
10 74 121 16 10 52 167 209 312 288 56 65 90 77 59 24 33 20 9 274 338 170 71 29 135 212 219 307 257 174 179 148 134 243 211 174 279 347 336 345 47 131 188 211 201
343 333 236 283 97 309 292 273 246 222 30 74 41 41 40 74 71 13 336 317 349 62 75 141 15 38 351 355 360 36 320 99 109 80 195 148 289 358 360 11 26 54 132 167 187
346 22 121 143 114 125 332 286 207 98 78 89 104 95 77 29 24 342 347 308 338 39 57 106 105 153 184 197 162 326 329 148 147 123 177 179 135 18 0 7 1 31 75 167 177
354 9 88 285 334 355 262 269 214 145 90 73 51 64 150 136 25 347 331 326 338 3 60 84 102 38 248 227 177 57 346 343 104 291 240 164 139 325 330 345 5 28 43 84 165
16 8 339 279 303 334 1 212 198 167 140 179 134 164 147 172 189 203 177 179 257 335 43 343 118 357 329 242 115 66 5 337 56 108 116 131 124 259 74 59 23 24 33 29 29
357 337 321 305 354 80 257 286 257 107 38 168 154 129 186 214 204 298 119 88 74 334 19 60 103 70 265 345 102 267 254 98 16 352 163 209 157 144 91 79 62 66 52 55 59